Home   Weather   Matsuyama   Past weeks

Flag for Japan Past Weather in Matsuyama, Japan — Yesterday and Last 2 Weeks

Now
75 °F

Mild.


Feels Like: 78 °F
Forecast: 77 / 84 °F
Wind: 12 mph from South

Location: Matsuyama

Current Time: Aug 31, 2016 at 6:00:08 AM

Latest Report: Aug 31, 2016 at 5:00 AM


Visibility: N/A

Pressure: 29.41 "Hg

Humidity: 50%

Dew Point: 55 °F

Location of MatsuyamaLocation

Past Weather in Matsuyama — Graph

°F

Matsuyama Temperature Yesterday

Maximum temperature yesterday: 79 °F (at 3:00 PM)
Minimum temperature yesterday: 68 °F (at 6:00 AM)
Average temperature yesterday: 75 °F

High & Low Weather Summary for the Past Weeks

 TemperatureHumidityPressure
High96 °F (Aug 20, 1:00 PM)95% (Aug 29, 1:00 AM)29.75 "Hg (Aug 29, 1:00 AM)
Low68 °F (Aug 30, 6:00 AM)33% (Aug 20, 6:00 PM)29.29 "Hg (Aug 29, 2:00 AM)
Average84 °F66%29.59 "Hg
* Reported Aug 16 4:00 AM — Aug 31 4:00 AM, Matsuyama, Weather by CustomWeather, © 2016

Note: Actual official high and low records may vary slightly from our data, if they occured in-between our weather recording intervals... More about our weather records

Advertising

Matsuyama Weather History for the Previous 24 Hours

Scroll right to see more
 ConditionsComfort  
Time TempWeatherWind HumidityBarometerVisibility
4:00 AM
Wed, Aug 31
76 °FMild.10 mph49%29.41 "HgN/A
3:00 AM77 °FPassing clouds.10 mph49%29.41 "Hg9 mi
2:00 AM77 °FWarm.9 mph48%29.38 "HgN/A
1:00 AM76 °FMild.8 mph52%29.35 "HgN/A
12:00 AM76 °FMild.8 mph52%29.38 "HgN/A
11:00 PM
Tue, Aug 30
77 °FWarm.8 mph51%29.35 "HgN/A
10:00 PM78 °FWarm.9 mph55%29.35 "HgN/A
9:00 PM75 °FOvercast.6 mph69%29.32 "Hg9 mi
8:00 PM76 °FMild.3 mph67%29.32 "HgN/A
7:00 PM78 °FWarm.6 mph58%29.29 "HgN/A
6:00 PM78 °FPassing clouds.6 mph56%29.29 "Hg16 mi
5:00 PM79 °FWarm.12 mph54%29.32 "HgN/A
4:00 PM79 °FWarm.12 mph52%29.32 "HgN/A
3:00 PM79 °FPassing clouds.10 mph53%29.32 "Hg16 mi
2:00 PM77 °FMild.8 mph57%29.32 "HgN/A
1:00 PM78 °FWarm.12 mph52%29.35 "HgN/A
12:00 PM78 °FPartly sunny.13 mph57%29.35 "Hg12 mi
11:00 AM78 °FWarm.12 mph57%29.38 "HgN/A
10:00 AM76 °FMild.12 mph65%29.38 "HgN/A
9:00 AM73 °FOvercast.9 mph70%29.38 "Hg9 mi
8:00 AM72 °FMild.5 mph73%29.41 "HgN/A
7:00 AM69 °FMild.5 mph76%29.41 "HgN/A
6:00 AM68 °FScattered clouds.3 mph75%29.41 "Hg12 mi
Weather by CustomWeather, © 2016

See weather overviewHow to use our weather pages